Year,Month,Day,Hour,Minute,Value (Times are PST for temperature in C)
2019,03,21,00,00,11.40
2019,03,21,00,01,11.40
2019,03,21,00,02,11.40
2019,03,21,00,03,11.30
2019,03,21,00,04,11.30
2019,03,21,00,05,11.30
2019,03,21,00,06,11.30
2019,03,21,00,07,11.30
2019,03,21,00,08,11.20
2019,03,21,00,09,11.20
2019,03,21,00,10,11.20
2019,03,21,00,11,11.20
2019,03,21,00,12,11.20
2019,03,21,00,13,11.20
2019,03,21,00,14,11.20
2019,03,21,00,15,11.20
2019,03,21,00,16,11.10
2019,03,21,00,17,11.10
2019,03,21,00,18,11.10
2019,03,21,00,19,11.10
2019,03,21,00,20,11.10
2019,03,21,00,21,11.10
2019,03,21,00,22,11.20
2019,03,21,00,23,11.20
2019,03,21,00,24,11.20
2019,03,21,00,25,11.20
2019,03,21,00,26,11.30
2019,03,21,00,27,11.30
2019,03,21,00,28,11.30
2019,03,21,00,29,11.30
2019,03,21,00,30,11.30
2019,03,21,00,31,11.30
2019,03,21,00,32,11.30
2019,03,21,00,33,11.30
2019,03,21,00,34,11.20
2019,03,21,00,35,11.20
2019,03,21,00,36,11.10
2019,03,21,00,37,11.00
2019,03,21,00,38,11.00
2019,03,21,00,39,10.90
2019,03,21,00,40,10.90
2019,03,21,00,41,10.90
2019,03,21,00,42,10.90
2019,03,21,00,43,10.90
2019,03,21,00,44,10.80
2019,03,21,00,45,10.80
2019,03,21,00,46,10.80
2019,03,21,00,47,10.80
2019,03,21,00,48,10.80
2019,03,21,00,49,10.80
2019,03,21,00,50,10.80
2019,03,21,00,51,10.70
2019,03,21,00,52,10.70
2019,03,21,00,53,10.70
2019,03,21,00,54,10.70
2019,03,21,00,55,10.60
2019,03,21,00,56,10.60
2019,03,21,00,57,10.60
2019,03,21,00,58,10.60
2019,03,21,00,59,10.60
2019,03,21,01,00,10.50
2019,03,21,01,01,10.50
2019,03,21,01,02,10.50
2019,03,21,01,03,10.50
2019,03,21,01,04,10.40
2019,03,21,01,05,10.40
2019,03,21,01,06,10.40
2019,03,21,01,07,10.40
2019,03,21,01,08,10.40
2019,03,21,01,09,10.40
2019,03,21,01,10,10.40
2019,03,21,01,11,10.40
2019,03,21,01,12,10.40
2019,03,21,01,13,10.40
2019,03,21,01,14,10.40
2019,03,21,01,15,10.40
2019,03,21,01,16,10.40
2019,03,21,01,17,10.30
2019,03,21,01,18,10.30
2019,03,21,01,19,10.20
2019,03,21,01,20,10.20
2019,03,21,01,21,10.20
2019,03,21,01,22,10.20
2019,03,21,01,23,10.20
2019,03,21,01,24,10.20
2019,03,21,01,25,10.20
2019,03,21,01,26,10.30
2019,03,21,01,27,10.30
2019,03,21,01,28,10.40
2019,03,21,01,29,10.50
2019,03,21,01,30,10.50
2019,03,21,01,31,10.60
2019,03,21,01,32,10.60
2019,03,21,01,33,10.70
2019,03,21,01,34,10.70
2019,03,21,01,35,10.80
2019,03,21,01,36,10.80
2019,03,21,01,37,10.80
2019,03,21,01,38,10.90
2019,03,21,01,39,11.00
2019,03,21,01,40,11.00
2019,03,21,01,41,11.10
2019,03,21,01,42,11.20
2019,03,21,01,43,11.20
2019,03,21,01,44,11.30
2019,03,21,01,45,11.30
2019,03,21,01,46,11.40
2019,03,21,01,47,11.40
2019,03,21,01,48,11.50
2019,03,21,01,49,11.50
2019,03,21,01,50,11.50
2019,03,21,01,51,11.50
2019,03,21,01,52,11.50
2019,03,21,01,53,11.50
2019,03,21,01,54,11.50
2019,03,21,01,55,11.50
2019,03,21,01,56,11.50
2019,03,21,01,57,11.50
2019,03,21,01,58,11.50
2019,03,21,01,59,11.50
2019,03,21,02,00,11.50
2019,03,21,02,01,11.50
2019,03,21,02,02,11.50
2019,03,21,02,03,11.50
2019,03,21,02,04,11.50
2019,03,21,02,05,11.50
2019,03,21,02,06,11.50
2019,03,21,02,07,11.50
2019,03,21,02,08,11.50
2019,03,21,02,09,11.50
2019,03,21,02,10,11.50
2019,03,21,02,11,11.50
2019,03,21,02,12,11.40
2019,03,21,02,13,11.40
2019,03,21,02,14,11.40
2019,03,21,02,15,11.40
2019,03,21,02,16,11.30
2019,03,21,02,17,11.30
2019,03,21,02,18,11.20
2019,03,21,02,19,11.10
2019,03,21,02,20,11.10
2019,03,21,02,21,11.00
2019,03,21,02,22,11.00
2019,03,21,02,23,10.90
2019,03,21,02,24,10.90
2019,03,21,02,25,10.80
2019,03,21,02,26,10.80
2019,03,21,02,27,10.80
2019,03,21,02,28,10.70
2019,03,21,02,29,10.70
2019,03,21,02,30,10.70
2019,03,21,02,31,10.70
2019,03,21,02,32,10.60
2019,03,21,02,33,10.60
2019,03,21,02,34,10.50
2019,03,21,02,35,10.50
2019,03,21,02,36,10.40
2019,03,21,02,37,10.40
2019,03,21,02,38,10.40
2019,03,21,02,39,10.30
2019,03,21,02,40,10.30
2019,03,21,02,41,10.30
2019,03,21,02,42,10.20
2019,03,21,02,43,10.20
2019,03,21,02,44,10.20
2019,03,21,02,45,10.10
2019,03,21,02,46,10.10
2019,03,21,02,47,10.10
2019,03,21,02,48,10.00
2019,03,21,02,49,10.00
2019,03,21,02,50,9.90
2019,03,21,02,51,9.80
2019,03,21,02,52,9.80
2019,03,21,02,53,9.70
2019,03,21,02,54,9.60
2019,03,21,02,55,9.50
2019,03,21,02,56,9.50
2019,03,21,02,57,9.40
2019,03,21,02,58,9.40
2019,03,21,02,59,9.30
2019,03,21,03,00,9.30
2019,03,21,03,01,9.30
2019,03,21,03,02,9.20
2019,03,21,03,03,9.20
2019,03,21,03,04,9.20
2019,03,21,03,05,9.20
2019,03,21,03,06,9.20
2019,03,21,03,07,9.10
2019,03,21,03,08,9.10
2019,03,21,03,09,9.10
2019,03,21,03,10,9.10
2019,03,21,03,11,9.10
2019,03,21,03,12,9.00
2019,03,21,03,13,9.00
2019,03,21,03,14,9.00
2019,03,21,03,15,8.90
2019,03,21,03,16,8.90
2019,03,21,03,17,8.90
2019,03,21,03,18,8.90
2019,03,21,03,19,8.90
2019,03,21,03,20,8.90
2019,03,21,03,21,8.80
2019,03,21,03,22,8.80
2019,03,21,03,23,8.80
2019,03,21,03,24,8.80
2019,03,21,03,25,8.80
2019,03,21,03,26,8.80
2019,03,21,03,27,8.90
2019,03,21,03,28,8.90
2019,03,21,03,29,8.90
2019,03,21,03,30,8.90
2019,03,21,03,31,8.90
2019,03,21,03,32,8.90
2019,03,21,03,33,8.90
2019,03,21,03,34,8.90
2019,03,21,03,35,8.90
2019,03,21,03,36,8.80
2019,03,21,03,37,8.80
2019,03,21,03,38,8.70
2019,03,21,03,39,8.70
2019,03,21,03,40,8.70
2019,03,21,03,41,8.60
2019,03,21,03,42,8.60
2019,03,21,03,43,8.60
2019,03,21,03,44,8.60
2019,03,21,03,45,8.50
2019,03,21,03,46,8.50
2019,03,21,03,47,8.50
2019,03,21,03,48,8.50
2019,03,21,03,49,8.40
2019,03,21,03,50,8.40
2019,03,21,03,51,8.40
2019,03,21,03,52,8.40
2019,03,21,03,53,8.30
2019,03,21,03,54,8.30
2019,03,21,03,55,8.30
2019,03,21,03,56,8.30
2019,03,21,03,57,8.20
2019,03,21,03,58,8.20
2019,03,21,03,59,8.20
2019,03,21,04,00,8.10
2019,03,21,04,01,8.10
2019,03,21,04,02,8.00
2019,03,21,04,03,8.00
2019,03,21,04,04,8.00
2019,03,21,04,05,7.90
2019,03,21,04,06,7.90
2019,03,21,04,07,7.90
2019,03,21,04,08,7.90
2019,03,21,04,09,7.80
2019,03,21,04,10,7.80
2019,03,21,04,11,7.80
2019,03,21,04,12,7.80
2019,03,21,04,13,7.80
2019,03,21,04,14,7.70
2019,03,21,04,15,7.70
2019,03,21,04,16,7.70
2019,03,21,04,17,7.70
2019,03,21,04,18,7.70
2019,03,21,04,19,7.70
2019,03,21,04,20,7.60
2019,03,21,04,21,7.60
2019,03,21,04,22,7.60
2019,03,21,04,23,7.60
2019,03,21,04,24,7.50
2019,03,21,04,25,7.50
2019,03,21,04,26,7.50
2019,03,21,04,27,7.40
2019,03,21,04,28,7.40
2019,03,21,04,29,7.40
2019,03,21,04,30,7.40
2019,03,21,04,31,7.40
2019,03,21,04,32,7.40
2019,03,21,04,33,7.40
2019,03,21,04,34,7.30
2019,03,21,04,35,7.30
2019,03,21,04,36,7.30
2019,03,21,04,37,7.30
2019,03,21,04,38,7.30
2019,03,21,04,39,7.20
2019,03,21,04,40,7.20
2019,03,21,04,41,7.20
2019,03,21,04,42,7.20
2019,03,21,04,43,7.30
2019,03,21,04,44,7.30
2019,03,21,04,45,7.40
2019,03,21,04,46,7.40
2019,03,21,04,47,7.40
2019,03,21,04,48,7.40
2019,03,21,04,49,7.30
2019,03,21,04,50,7.20
2019,03,21,04,51,7.20
2019,03,21,04,52,7.10
2019,03,21,04,53,7.10
2019,03,21,04,54,7.00
2019,03,21,04,55,6.90
2019,03,21,04,56,6.90
2019,03,21,04,57,6.90
2019,03,21,04,58,6.90
2019,03,21,04,59,6.90
2019,03,21,05,00,6.90
2019,03,21,05,01,6.90
2019,03,21,05,02,6.90
2019,03,21,05,03,6.90
2019,03,21,05,04,6.90
2019,03,21,07,53,6.40
2019,03,21,07,54,6.40
2019,03,21,07,55,6.40
2019,03,21,07,56,6.50
2019,03,21,07,57,6.50
2019,03,21,07,58,6.50
2019,03,21,07,59,6.60
2019,03,21,08,00,6.60
2019,03,21,08,01,6.60
2019,03,21,08,02,6.60
2019,03,21,08,03,6.60
2019,03,21,08,04,6.60
2019,03,21,08,05,6.60
2019,03,21,08,06,6.60
2019,03,21,08,07,6.60
2019,03,21,08,08,6.60
2019,03,21,08,09,6.60
2019,03,21,08,10,6.60
2019,03,21,08,11,6.60
2019,03,21,08,12,6.60
2019,03,21,08,13,6.60
2019,03,21,08,14,6.60
2019,03,21,08,15,6.70
2019,03,21,08,16,6.70
2019,03,21,08,17,6.70
2019,03,21,08,18,6.70
2019,03,21,08,19,6.80
2019,03,21,08,20,6.80
2019,03,21,08,21,6.80
2019,03,21,08,22,6.80
2019,03,21,08,23,6.90
2019,03,21,08,24,6.90
2019,03,21,08,25,7.00
2019,03,21,08,26,7.00
2019,03,21,08,27,7.10
2019,03,21,08,28,7.10
2019,03,21,08,29,7.20
2019,03,21,08,30,7.20
2019,03,21,08,31,7.30
2019,03,21,08,32,7.30
2019,03,21,08,33,7.40
2019,03,21,08,34,7.50
2019,03,21,08,35,7.60
2019,03,21,08,36,7.70
2019,03,21,08,37,7.70
2019,03,21,08,38,7.80
2019,03,21,08,39,7.90
2019,03,21,08,40,8.00
2019,03,21,08,41,8.10
2019,03,21,08,42,8.20
2019,03,21,08,43,8.20
2019,03,21,08,44,8.30
2019,03,21,08,45,8.40
2019,03,21,08,46,8.40
2019,03,21,08,47,8.50
2019,03,21,08,48,8.50
2019,03,21,08,49,8.60
2019,03,21,08,50,8.70
2019,03,21,08,51,8.80
2019,03,21,08,52,8.90
2019,03,21,08,53,9.00
2019,03,21,08,54,9.10
2019,03,21,08,55,9.20
2019,03,21,08,56,9.30
2019,03,21,08,57,9.40
2019,03,21,08,58,9.60
2019,03,21,08,59,9.70
2019,03,21,09,00,9.80
2019,03,21,09,01,9.90
2019,03,21,09,02,9.90
2019,03,21,09,03,10.00
2019,03,21,09,04,10.10
2019,03,21,09,05,10.10
2019,03,21,09,06,10.20
2019,03,21,09,07,10.20
2019,03,21,09,08,10.20
2019,03,21,09,09,10.30
2019,03,21,09,10,10.30
2019,03,21,09,11,10.30
2019,03,21,09,12,10.30
2019,03,21,09,13,10.30
2019,03,21,09,14,10.30
2019,03,21,09,15,10.30
2019,03,21,09,16,10.40
2019,03,21,09,17,10.40
2019,03,21,09,18,10.40
2019,03,21,09,19,10.50
2019,03,21,09,20,10.60
2019,03,21,09,21,10.80
2019,03,21,09,22,10.80
2019,03,21,09,23,10.90
2019,03,21,09,24,10.90
2019,03,21,09,25,10.90
2019,03,21,09,26,11.00
2019,03,21,09,27,11.00
2019,03,21,09,28,11.10
2019,03,21,09,29,11.10
2019,03,21,09,30,11.10
2019,03,21,09,31,11.20
2019,03,21,09,32,11.20
2019,03,21,09,33,11.20
2019,03,21,09,34,11.20
2019,03,21,09,35,11.30
2019,03,21,09,36,11.40
2019,03,21,09,37,11.40
2019,03,21,09,38,11.50
2019,03,21,09,39,11.60
2019,03,21,09,40,11.60
2019,03,21,09,41,11.70
2019,03,21,09,42,11.80
2019,03,21,09,43,11.80
2019,03,21,09,44,11.90
2019,03,21,09,45,12.00
2019,03,21,09,46,12.10
2019,03,21,09,47,12.10
2019,03,21,09,48,12.10
2019,03,21,09,49,12.20
2019,03,21,09,50,12.20
2019,03,21,09,51,12.20
2019,03,21,09,52,12.20
2019,03,21,09,53,12.20
2019,03,21,09,54,12.20
2019,03,21,09,55,12.20
2019,03,21,09,56,12.20
2019,03,21,09,57,12.20
2019,03,21,09,58,12.20
2019,03,21,09,59,12.20
2019,03,21,10,00,12.20
2019,03,21,10,01,12.20
2019,03,21,10,02,12.20
2019,03,21,10,03,12.30
2019,03,21,10,04,12.30
2019,03,21,10,05,12.40
2019,03,21,10,06,12.40
2019,03,21,10,07,12.50
2019,03,21,10,08,12.60
2019,03,21,10,09,12.60
2019,03,21,10,10,12.70
2019,03,21,10,11,12.70
2019,03,21,10,12,12.80
2019,03,21,10,13,12.80
2019,03,21,10,14,12.90
2019,03,21,10,15,12.90
2019,03,21,10,16,13.00
2019,03,21,10,17,13.00
2019,03,21,10,18,13.10
2019,03,21,10,19,13.10
2019,03,21,10,20,13.20
2019,03,21,10,21,13.20
2019,03,21,10,22,13.30
2019,03,21,10,23,13.30
2019,03,21,10,24,13.40
2019,03,21,10,25,13.40
2019,03,21,10,26,13.40
2019,03,21,10,27,13.40
2019,03,21,10,28,13.40
2019,03,21,10,29,13.40
2019,03,21,10,30,13.30
2019,03,21,10,31,13.20
2019,03,21,10,32,13.20
2019,03,21,10,33,13.20
2019,03,21,10,34,13.20
2019,03,21,10,35,13.20
2019,03,21,10,36,13.10
2019,03,21,10,37,13.00
2019,03,21,10,38,12.90
2019,03,21,10,39,12.90
2019,03,21,10,40,12.80
2019,03,21,10,41,12.70
2019,03,21,10,42,12.70
2019,03,21,10,43,12.70
2019,03,21,10,44,12.70
2019,03,21,10,45,12.70
2019,03,21,10,46,12.60
2019,03,21,10,47,12.60
2019,03,21,10,48,12.70
2019,03,21,10,49,12.70
2019,03,21,10,50,12.70
2019,03,21,10,51,12.70
2019,03,21,10,52,12.70
2019,03,21,10,53,12.70
2019,03,21,10,54,12.70
2019,03,21,10,55,12.70
2019,03,21,10,56,12.70
2019,03,21,10,57,12.70
2019,03,21,10,58,12.70
2019,03,21,10,59,12.70
2019,03,21,11,00,12.70
2019,03,21,11,01,12.70
2019,03,21,11,02,12.70
2019,03,21,11,03,12.70
2019,03,21,11,04,12.70
2019,03,21,11,05,12.70
2019,03,21,11,06,12.70
2019,03,21,11,07,12.70
2019,03,21,11,08,12.70
2019,03,21,11,09,12.70
2019,03,21,11,10,12.70
2019,03,21,11,11,12.60
2019,03,21,11,12,12.70
2019,03,21,11,13,12.70
2019,03,21,11,14,12.70
2019,03,21,11,15,12.80
2019,03,21,11,16,12.80
2019,03,21,11,17,12.80
2019,03,21,11,18,12.80
2019,03,21,11,19,12.80
2019,03,21,11,20,12.80
2019,03,21,11,21,12.90
2019,03,21,11,22,12.90
2019,03,21,11,23,12.90
2019,03,21,11,24,13.00
2019,03,21,11,25,13.00
2019,03,21,11,26,13.10
2019,03,21,11,27,13.10
2019,03,21,11,28,13.20
2019,03,21,11,29,13.30
2019,03,21,11,30,13.30
2019,03,21,11,31,13.30
2019,03,21,11,32,13.40
2019,03,21,11,33,13.40
2019,03,21,11,34,13.40
2019,03,21,11,35,13.40
2019,03,21,11,36,13.40
2019,03,21,11,37,13.40
2019,03,21,11,38,13.30
2019,03,21,11,39,13.40
2019,03,21,11,40,13.40
2019,03,21,11,41,13.50
2019,03,21,11,42,13.60
2019,03,21,11,43,13.60
2019,03,21,11,44,13.60
2019,03,21,11,45,13.50
2019,03,21,11,46,13.50
2019,03,21,11,47,13.50
2019,03,21,11,48,13.60
2019,03,21,11,49,13.60
2019,03,21,11,50,13.70
2019,03,21,11,51,13.70
2019,03,21,11,52,13.80
2019,03,21,11,53,13.80
2019,03,21,11,54,13.80
2019,03,21,11,55,13.70
2019,03,21,11,56,13.70
2019,03,21,11,57,13.70
2019,03,21,11,58,13.70
2019,03,21,11,59,13.70
2019,03,21,12,00,13.80
2019,03,21,12,01,13.80
2019,03,21,12,02,13.80
2019,03,21,12,03,13.80
2019,03,21,12,04,13.80
2019,03,21,12,05,13.80
2019,03,21,12,06,13.70
2019,03,21,12,07,13.70
2019,03,21,12,08,13.60
2019,03,21,12,09,13.50
2019,03,21,12,10,13.50
2019,03,21,12,11,13.50
2019,03,21,12,12,13.50
2019,03,21,12,13,13.40
2019,03,21,12,14,13.40
2019,03,21,12,15,13.30
2019,03,21,12,16,13.30
2019,03,21,12,17,13.30
2019,03,21,12,18,13.30
2019,03,21,12,19,13.40
2019,03,21,12,20,13.40
2019,03,21,12,21,13.40
2019,03,21,12,22,13.50
2019,03,21,12,23,13.60
2019,03,21,12,24,13.70
2019,03,21,12,25,13.70
2019,03,21,12,26,13.70
2019,03,21,12,27,13.60
2019,03,21,12,28,13.60
2019,03,21,12,29,13.50
2019,03,21,12,30,13.50
2019,03,21,12,31,13.40
2019,03,21,12,32,13.20
2019,03,21,12,33,13.20
2019,03,21,12,34,13.20
2019,03,21,12,35,13.20
2019,03,21,12,36,13.30
2019,03,21,12,37,13.30
2019,03,21,12,38,13.40
2019,03,21,12,39,13.40
2019,03,21,12,40,13.40
2019,03,21,12,41,13.40
2019,03,21,12,42,13.40
2019,03,21,12,43,13.40
2019,03,21,12,44,13.40
2019,03,21,12,45,13.50
2019,03,21,12,46,13.60
2019,03,21,12,47,13.70
2019,03,21,12,48,13.70
2019,03,21,12,49,13.60
2019,03,21,12,50,13.50
2019,03,21,12,51,13.50
2019,03,21,12,52,13.60
2019,03,21,12,53,13.70
2019,03,21,12,54,13.70
2019,03,21,12,55,13.80
2019,03,21,12,56,13.80
2019,03,21,12,57,13.80
2019,03,21,12,58,13.80
2019,03,21,12,59,13.80
2019,03,21,13,00,13.80
2019,03,21,13,01,13.80
2019,03,21,13,02,13.80
2019,03,21,13,03,13.90
2019,03,21,13,04,13.80
2019,03,21,13,05,13.80
2019,03,21,13,06,13.70
2019,03,21,13,07,13.80
2019,03,21,13,08,13.80
2019,03,21,13,09,13.80
2019,03,21,13,10,13.80
2019,03,21,13,11,13.80
2019,03,21,13,12,13.90
2019,03,21,13,13,14.00
2019,03,21,13,14,14.20
2019,03,21,13,15,14.20
2019,03,21,13,16,14.30
2019,03,21,13,17,14.30
2019,03,21,13,18,14.40
2019,03,21,13,19,14.40
2019,03,21,13,20,14.40
2019,03,21,13,21,14.50
2019,03,21,13,22,14.60
2019,03,21,13,23,14.70
2019,03,21,13,24,14.70
2019,03,21,13,25,14.70
2019,03,21,13,26,14.60
2019,03,21,13,27,14.60
2019,03,21,13,28,14.60
2019,03,21,13,29,14.60
2019,03,21,13,30,14.40
2019,03,21,13,31,14.30
2019,03,21,13,32,14.30
2019,03,21,13,33,14.30
2019,03,21,13,34,14.30
2019,03,21,13,35,14.30
2019,03,21,13,36,14.40
2019,03,21,13,37,14.40
2019,03,21,13,38,14.40
2019,03,21,13,39,14.40
2019,03,21,13,40,14.50
2019,03,21,13,41,14.50
2019,03,21,13,42,14.40
2019,03,21,13,43,14.30
2019,03,21,13,44,14.20
2019,03,21,13,45,14.20
2019,03,21,13,46,14.30
2019,03,21,13,47,14.40
2019,03,21,13,48,14.50
2019,03,21,13,49,14.50
2019,03,21,13,50,14.50
2019,03,21,13,51,14.60
2019,03,21,13,52,14.60
2019,03,21,13,53,14.60
2019,03,21,13,54,14.60
2019,03,21,13,55,14.70
2019,03,21,13,56,14.70
2019,03,21,13,57,14.70
2019,03,21,13,58,14.60
2019,03,21,13,59,14.60
2019,03,21,14,00,14.60
2019,03,21,14,01,14.60
2019,03,21,14,02,14.70
2019,03,21,14,03,14.60
2019,03,21,14,04,14.60
2019,03,21,14,05,14.60
2019,03,21,14,06,14.50
2019,03,21,14,07,14.50
2019,03,21,14,08,14.50
2019,03,21,14,09,14.50
2019,03,21,14,10,14.40
2019,03,21,14,11,14.40
2019,03,21,14,12,14.50
2019,03,21,14,13,14.50
2019,03,21,14,14,14.50
2019,03,21,14,15,14.40
2019,03,21,14,16,14.40
2019,03,21,14,17,14.50
2019,03,21,14,18,14.50
2019,03,21,14,19,14.60
2019,03,21,14,20,14.70
2019,03,21,14,21,14.70
2019,03,21,14,22,14.60
2019,03,21,14,23,14.60
2019,03,21,14,24,14.60
2019,03,21,14,25,14.60
2019,03,21,14,26,14.60
2019,03,21,14,27,14.50
2019,03,21,14,28,14.50
2019,03,21,14,29,14.50
2019,03,21,14,30,14.50
2019,03,21,14,31,14.40
2019,03,21,14,32,14.40
2019,03,21,14,33,14.40
2019,03,21,14,34,14.40
2019,03,21,14,35,14.40
2019,03,21,14,36,14.40
2019,03,21,14,37,14.40
2019,03,21,14,38,14.30
2019,03,21,14,39,14.20
2019,03,21,14,40,14.20
2019,03,21,14,41,14.20
2019,03,21,14,42,14.20
2019,03,21,14,43,14.30
2019,03,21,14,44,14.40
2019,03,21,14,45,14.40
2019,03,21,14,46,14.50
2019,03,21,14,47,14.50
2019,03,21,14,48,14.40
2019,03,21,14,49,14.50
2019,03,21,14,50,14.60
2019,03,21,14,51,14.70
2019,03,21,14,52,14.80
2019,03,21,14,53,14.80
2019,03,21,14,54,14.70
2019,03,21,14,55,14.70
2019,03,21,14,56,14.80
2019,03,21,14,57,14.80
2019,03,21,14,58,14.70
2019,03,21,14,59,14.60
2019,03,21,15,00,14.60
2019,03,21,15,01,14.50
2019,03,21,15,02,14.50
2019,03,21,15,03,14.40
2019,03,21,15,04,14.40
2019,03,21,15,05,14.40
2019,03,21,15,06,14.30
2019,03,21,15,07,14.30
2019,03,21,15,08,14.30
2019,03,21,15,09,14.40
2019,03,21,15,10,14.40
2019,03,21,15,11,14.40
2019,03,21,15,12,14.40
2019,03,21,15,13,14.40
2019,03,21,15,14,14.40
2019,03,21,15,15,14.40
2019,03,21,15,16,14.40
2019,03,21,15,17,14.50
2019,03,21,15,18,14.60
2019,03,21,15,19,14.60
2019,03,21,15,20,14.50
2019,03,21,15,21,14.40
2019,03,21,15,22,14.40
2019,03,21,15,23,14.40
2019,03,21,15,24,14.30
2019,03,21,15,25,14.30
2019,03,21,15,26,14.20
2019,03,21,15,27,14.10
2019,03,21,15,28,14.10
2019,03,21,15,29,14.10
2019,03,21,15,30,14.10
2019,03,21,15,31,14.10
2019,03,21,15,32,14.00
2019,03,21,15,33,14.00
2019,03,21,15,34,14.10
2019,03,21,15,35,14.10
2019,03,21,15,36,14.20
2019,03,21,15,37,14.30
2019,03,21,15,38,14.40
2019,03,21,15,39,14.40
2019,03,21,15,40,14.30
2019,03,21,15,41,14.30
2019,03,21,15,42,14.40
2019,03,21,15,43,14.40
2019,03,21,15,44,14.50
2019,03,21,15,45,14.60
2019,03,21,15,46,14.60
2019,03,21,15,47,14.60
2019,03,21,15,48,14.60
2019,03,21,15,49,14.50
2019,03,21,15,50,14.50
2019,03,21,15,51,14.40
2019,03,21,15,52,14.40
2019,03,21,15,53,14.50
2019,03,21,15,54,14.50
2019,03,21,15,55,14.50
2019,03,21,15,56,14.50
2019,03,21,15,57,14.50
2019,03,21,15,58,14.50
2019,03,21,15,59,14.50
2019,03,21,16,00,14.50
2019,03,21,16,01,14.50
2019,03,21,16,02,14.60
2019,03,21,16,03,14.60
2019,03,21,16,04,14.50
2019,03,21,16,05,14.40
2019,03,21,16,06,14.40
2019,03,21,16,07,14.40
2019,03,21,16,08,14.40
2019,03,21,16,09,14.40
2019,03,21,16,10,14.50
2019,03,21,16,11,14.50
2019,03,21,16,12,14.60
2019,03,21,16,13,14.60
2019,03,21,16,14,14.60
2019,03,21,16,15,14.70
2019,03,21,16,16,14.80
2019,03,21,16,17,14.80
2019,03,21,16,18,14.80
2019,03,21,16,19,14.70
2019,03,21,16,20,14.60
2019,03,21,16,21,14.50
2019,03,21,16,22,14.40
2019,03,21,16,23,14.40
2019,03,21,16,24,14.40
2019,03,21,16,25,14.40
2019,03,21,16,26,14.40
2019,03,21,16,27,14.40
2019,03,21,16,28,14.40
2019,03,21,16,29,14.40
2019,03,21,16,30,14.40
2019,03,21,16,31,14.40
2019,03,21,16,32,14.50
2019,03,21,16,33,14.50
2019,03,21,16,34,14.50
2019,03,21,16,35,14.50
2019,03,21,16,36,14.50
2019,03,21,16,37,14.40
2019,03,21,16,38,14.30
2019,03,21,16,39,14.20
2019,03,21,16,40,14.20
2019,03,21,16,41,14.20
2019,03,21,16,42,14.10
2019,03,21,16,43,14.00
2019,03,21,16,44,13.90
2019,03,21,16,45,13.80
2019,03,21,16,46,13.70
2019,03,21,16,47,13.70
2019,03,21,16,48,13.70
2019,03,21,16,49,13.70
2019,03,21,16,50,13.70
2019,03,21,16,51,13.70
2019,03,21,16,52,13.70
2019,03,21,16,53,13.70
2019,03,21,16,54,13.70
2019,03,21,16,55,13.70
2019,03,21,16,56,13.70
2019,03,21,16,57,13.70
2019,03,21,16,58,13.70
2019,03,21,16,59,13.80
2019,03,21,17,00,13.80
2019,03,21,17,01,13.80
2019,03,21,17,02,13.90
2019,03,21,17,03,13.90
2019,03,21,17,04,14.00
2019,03,21,17,05,14.10
2019,03,21,17,06,14.10
2019,03,21,17,07,14.20
2019,03,21,17,08,14.30
2019,03,21,17,09,14.40
2019,03,21,17,10,14.50
2019,03,21,17,11,14.50
2019,03,21,17,12,14.60
2019,03,21,17,13,14.70
2019,03,21,17,14,14.70
2019,03,21,17,15,14.70
2019,03,21,17,16,14.80
2019,03,21,17,17,14.80
2019,03,21,17,18,14.80
2019,03,21,17,19,14.80
2019,03,21,17,20,14.80
2019,03,21,17,21,14.80
2019,03,21,17,22,14.80
2019,03,21,17,23,14.90
2019,03,21,17,24,14.90
2019,03,21,17,25,14.90
2019,03,21,17,26,14.90
2019,03,21,17,27,14.90
2019,03,21,17,28,14.90
2019,03,21,17,29,14.90
2019,03,21,17,30,14.80
2019,03,21,17,31,14.80
2019,03,21,17,32,14.80
2019,03,21,17,33,14.80
2019,03,21,17,34,14.80
2019,03,21,17,35,14.80
2019,03,21,17,36,14.80
2019,03,21,17,37,14.80
2019,03,21,17,38,14.70
2019,03,21,17,39,14.70
2019,03,21,17,40,14.70
2019,03,21,17,41,14.80
2019,03,21,17,42,14.70
2019,03,21,17,43,14.70
2019,03,21,17,44,14.70
2019,03,21,17,45,14.70
2019,03,21,17,46,14.60
2019,03,21,17,47,14.60
2019,03,21,17,48,14.60
2019,03,21,17,49,14.60
2019,03,21,17,50,14.60
2019,03,21,17,51,14.50
2019,03,21,17,52,14.50
2019,03,21,17,53,14.40
2019,03,21,17,54,14.40
2019,03,21,17,55,14.30
2019,03,21,17,56,14.30
2019,03,21,17,57,14.20
2019,03,21,17,58,14.10
2019,03,21,17,59,14.10
2019,03,21,18,00,14.10
2019,03,21,18,01,14.00
2019,03,21,18,02,13.90
2019,03,21,18,03,13.90
2019,03,21,18,04,13.80
2019,03,21,18,05,13.70
2019,03,21,18,06,13.70
2019,03,21,18,07,13.60
2019,03,21,18,08,13.60
2019,03,21,18,09,13.50
2019,03,21,18,10,13.40
2019,03,21,18,11,13.40
2019,03,21,18,12,13.30
2019,03,21,18,13,13.30
2019,03,21,18,14,13.30
2019,03,21,18,15,13.30
2019,03,21,18,16,13.30
2019,03,21,18,17,13.30
2019,03,21,18,18,13.30
2019,03,21,18,19,13.20
2019,03,21,18,20,13.20
2019,03,21,18,21,13.20
2019,03,21,18,22,13.20
2019,03,21,18,23,13.20
2019,03,21,18,24,13.20
2019,03,21,18,25,13.20
2019,03,21,18,26,13.20
2019,03,21,18,27,13.20
2019,03,21,18,28,13.20
2019,03,21,18,29,13.30
2019,03,21,18,30,13.30
2019,03,21,18,31,13.30
2019,03,21,18,32,13.30
2019,03,21,18,33,13.30
2019,03,21,18,34,13.30
2019,03,21,18,35,13.30
2019,03,21,18,36,13.30
2019,03,21,18,37,13.30
2019,03,21,18,38,13.30
2019,03,21,18,39,13.30
2019,03,21,18,40,13.30
2019,03,21,18,41,13.20
2019,03,21,18,42,13.20
2019,03,21,18,43,13.20
2019,03,21,18,44,13.20
2019,03,21,18,45,13.20
2019,03,21,18,46,13.20
2019,03,21,18,47,13.20
2019,03,21,18,48,13.20
2019,03,21,18,49,13.10
2019,03,21,18,50,13.10
2019,03,21,18,51,13.00
2019,03,21,18,52,13.00
2019,03,21,18,53,13.00
2019,03,21,18,54,12.90
2019,03,21,18,55,12.90
2019,03,21,18,56,12.90
2019,03,21,18,57,12.90
2019,03,21,18,58,12.90
2019,03,21,18,59,12.90
2019,03,21,19,00,12.80
2019,03,21,19,01,12.80
2019,03,21,19,02,12.80
2019,03,21,19,03,12.80
2019,03,21,19,04,12.80
2019,03,21,19,05,12.80
2019,03,21,19,06,12.80
2019,03,21,19,07,12.80
2019,03,21,19,08,12.80
2019,03,21,19,09,12.80
2019,03,21,19,10,12.70
2019,03,21,19,11,12.70
2019,03,21,19,12,12.70
2019,03,21,19,13,12.70
2019,03,21,19,14,12.70
2019,03,21,19,15,12.70
2019,03,21,19,16,12.70
2019,03,21,19,17,12.70
2019,03,21,19,18,12.70
2019,03,21,19,19,12.70
2019,03,21,19,20,12.70
2019,03,21,19,21,12.70
2019,03,21,19,22,12.70
2019,03,21,19,23,12.60
2019,03,21,19,24,12.60
2019,03,21,19,25,12.60
2019,03,21,19,26,12.60
2019,03,21,19,27,12.60
2019,03,21,19,28,12.60
2019,03,21,19,29,12.60
2019,03,21,19,30,12.60
2019,03,21,19,31,12.60
2019,03,21,19,32,12.60
2019,03,21,19,33,12.50
2019,03,21,19,34,12.50
2019,03,21,19,35,12.50
2019,03,21,19,36,12.50
2019,03,21,19,37,12.50
2019,03,21,19,38,12.50
2019,03,21,19,39,12.50
2019,03,21,19,40,12.50
2019,03,21,19,41,12.50
2019,03,21,19,42,12.50
2019,03,21,19,43,12.50
2019,03,21,19,44,12.50
2019,03,21,19,45,12.50
2019,03,21,19,46,12.60
2019,03,21,19,47,12.60
2019,03,21,19,48,12.60
2019,03,21,19,49,12.60
2019,03,21,19,50,12.60
2019,03,21,19,51,12.60
2019,03,21,19,52,12.60
2019,03,21,19,53,12.60
2019,03,21,19,54,12.60
2019,03,21,19,55,12.60
2019,03,21,19,56,12.60
2019,03,21,19,57,12.60
2019,03,21,19,58,12.60
2019,03,21,19,59,12.60
2019,03,21,20,00,12.60
2019,03,21,20,01,12.60
2019,03,21,20,02,12.60
2019,03,21,20,03,12.60
2019,03,21,20,04,12.60
2019,03,21,20,05,12.60
2019,03,21,20,06,12.60
2019,03,21,20,07,12.60
2019,03,21,20,08,12.60
2019,03,21,20,09,12.60
2019,03,21,20,10,12.60
2019,03,21,20,11,12.60
2019,03,21,20,12,12.60
2019,03,21,20,13,12.60
2019,03,21,20,14,12.60
2019,03,21,20,15,12.60
2019,03,21,20,16,12.60